Location: OLV Amersfoort
(52.1552°N, 5.3872°E)
Time: 08:23:02
(UTC+02:00)

ISS - Visible Passes

Search period start: 26 March 2023 00:00
Search period end: 05 April 2023 01:00
Orbit: 414 x 422 km, 51.6° (Epoch: 26 March)

Date Brightness Start Highest point End Pass type
(mag) Time Alt. Az. Time Alt. Az. Time Alt. Az.
26 Mar -3.8 21:18:26 10° W 21:21:47 73° S 21:23:36 25° ESE visible
26 Mar -1.3 22:55:21 10° W 22:56:32 18° WSW 22:56:32 18° WSW visible
27 Mar -2.9 22:07:13 10° W 22:10:21 37° SSW 22:10:26 37° SSW visible
28 Mar -3.3 21:19:06 10° W 21:22:22 49° SSW 21:24:18 21° SE visible
28 Mar -0.9 22:56:37 10° WSW 22:57:13 12° WSW 22:57:13 12° WSW visible
29 Mar -1.9 22:08:03 10° W 22:10:38 21° SW 22:11:05 20° SSW visible
30 Mar -2.3 21:19:40 10° W 21:22:36 28° SSW 21:24:56 14° SSE visible
31 Mar -1.0 22:10:03 10° SW 22:10:32 10° SW 22:11:03 10° SW visible
01 Apr -1.2 21:20:28 10° WSW 21:22:30 15° SW 21:24:32 10° S visible
